Weather Roundup
Issued by NWS Chicago, IL

Home | Current Version | Previous Version | Graphics & Text | Print | Product List | Glossary On
Versions: 1 2 3 4 5 6 7 8 9 10 11 12 13 14 15 16 17 18 19 20 21 22 23 24 25 26 27 28 29 30 31 32 33 34 35 36 37 38 39 40 41 42 43 44 45 46 47 48 49 50
000
NZUS59 KLOT 040308
HRRLOT

CHICAGO AREA WEATHER ROUNDUP
NATIONAL WEATHER SERVICE CHICAGO/ROMEOVILLE IL
1000 PM CDT THU SEP 03 2015

NOTE: "FAIR" INDICATES FEW OR NO CLOUDS BELOW 12,000 FEET WITH NO
SIGNIFICANT WEATHER AND/OR OBSTRUCTIONS TO VISIBILITY.

* THESE STATIONS ARE NOT UNDER NWS QUALITY CONTROL. THEY ALSO MAY NOT
  REPORT WEATHER SUCH AS PRECIPITATION OR FOG.

ILZ005-006-012>014-019>023-040400-
NORTHEAST ILLINOIS

CITY           SKY/WX    TMP DP  RH WIND       PRES   REMARKS
OHARE          MOCLDY    73  66  78 NE7G18    29.94R
MIDWAY         PTCLDY    76  67  73 NE9       29.94R
AURORA         PTCLDY    74  69  85 E6        29.94R
LANSING*       CLEAR     73  68  86 NE3       29.93S
JOLIET*        MOCLDY    80  73  78 N9        29.92R HX  83
WAUKEGAN       CLOUDY    69  66  90 VRB3      29.95R
DUPAGE AIRPORT MOCLDY    73  66  78 NE6       29.94R
WHEELING       MOCLDY    71  67  87 NE6       29.96R
KANKAKEE*      CLEAR     74  69  86 CALM      29.92F
MORRIS*        CLEAR     76  70  81 SW3       29.91S
LEWIS AIRPORT* PTCLDY    74  68  81 NE8       29.93R
NORTHERLY IS     N/A     71  67  87 N6          N/A
$$

WIZ051-052-058>065-066-070>072-040400-
SOUTHEAST WISCONSIN

CITY           SKY/WX    TMP DP  RH WIND       PRES   REMARKS
MILWAUKEE      MOCLDY    65  63  93 N7        29.94F
KENOSHA*       CLOUDY    69  65  86 N3        29.96S
RACINE*        CLOUDY    65  63  93 N6        29.97R
BURLINGTON     CLOUDY    68  64  85 NE5       29.96S
WAUKESHA       CLOUDY    68  63  83 CALM      29.97S
WEST BEND      CLEAR     64  61  88 CALM      29.96F
$$

INZ001>003-010>013-019-020-040400-
NORTHWEST INDIANA

CITY           SKY/WX    TMP DP  RH WIND       PRES   REMARKS
GARY*          CLEAR     73  68  83 N6        29.94R
MICHIGAN CITY* NOT AVBL
RENSSELAER*    NOT AVBL
VALPARAISO     CLEAR     74  70  87 N6        29.93R
$$

LMZ740>746-040400-
SOUTHERN LAKE MICHIGAN

STATION/POSITION TIME  SKY/WX   TEMP WIND        PRES    VSBY
                                AIR  DIR/SP/G
                 (UTC)          (F)  (DEG/KT/KT) (MB)    (MI)
HARRISON CRIB    0200            72   20/  9/ 10   N/A
BURNHAM HARBOR   0300            71  360/  5/  7   N/A
CALUMET HARBOR   0200            72   10/  5/  9   N/A
BURNS HARBOR     0200            73   50/ 12/ 15 1013.5R
MICHIGAN CITY    0200            72   10/ 13/ 14   N/A
$$

ABBREVIATIONS USED IN REMARKS
   TC - TEMPERATURE IN CELSIUS
  WCI - WIND CHILL INDEX
   HX - HEAT INDEX
  VSB - VISIBILITY
$$


USA.gov is the U.S. government's official web portal to all federal, state and local government web resources and services.